Terug naar catalogus

TOMORROW-S8

ActiefWeerVLEO
NORAD 66308·PAYLOAD·🇺🇸 United States

Gelanceerd Nov 2, 2025 vanaf Cape Canaveral Space Force Station

Loading…

Volgende Passages (komende 24 uur)

TLE

VersSource: Space-Track

Epoch: Sep 14, 2026, 13:37 UTC

1 66308U 25248R   26257.56749313  .00004027  00000-0  18996-3 0  9993
2 66308  45.3996   1.6697 0004246 191.8318 168.2469 15.21172554 48121

Volg TOMORROW-S8 in realtime met AllMySat

Download on the App Store